Regional Weather Roundup
Issued by NWS Albany, NY

Home | Current Version | Previous Version | Text Only | Print | Product List | Glossary On
Versions: 1 2 3 4 5 6 7 8 9 10 11 12 13 14 15 16 17 18 19 20 21 22 23 24 25 26 27 28 29 30 31 32 33 34 35 36 37 38 39 40 41 42 43 44 45 46 47 48 49 50
000
ASUS41 KALY 021510
RWRALY

NEW YORK STATE HOURLY WEATHER ROUNDUP
NATIONAL WEATHER SERVICE ALBANY NY
1100 AM EDT THU JUL 02 2015

NOTE: "FAIR" INDICATES FEW OR NO CLOUDS BELOW 12,000 FEET WITH NO
SIGNIFICANT WEATHER AND/OR NO OBSTRUCTIONS TO VISIBILITY.

NYZ032-033-038>043-046>054-057>066-NYZ062>081-021600-
EAST


CITY           SKY/WX    TMP DP  RH WIND       PRES   REMARKS
ALBANY         PTSUNNY   71  54  54 NW7       29.93R
GLENS FALLS    CLOUDY    69  52  54 VRB3      29.90R
POUGHKEEPSIE   MOSUNNY   74  56  53 CALM      29.92S
NEWBURGH       MOSUNNY   72  61  68 VRB5      29.94F
MONTGOMERY     MOSUNNY   73  57  57 NW7       29.93S
WHITE PLAINS   MOSUNNY   75  58  55 W5        29.92S
ISLIP          CLOUDY    76  60  57 N3        29.90S
NEW YORK CITY  PTSUNNY   76  56  49 NE3       29.92R
CENTRAL PARK   PTSUNNY   76  57  51 CALM      29.95S
$$

NYZ005>009-017-018-044>046-055-056-021600-
CENTRAL


CITY           SKY/WX    TMP DP  RH WIND       PRES   REMARKS
FULTON         SUNNY     65  53  65 VRB3      29.97R
SYRACUSE       PTSUNNY   67  55  65 W9        29.95S
ROME           PTSUNNY   66  54  65 NW10      29.96R
ELMIRA         PTSUNNY   69  56  62 NW6       29.95S
BINGHAMTON     PTSUNNY   67  54  63 W9G16     29.97R
MONTICELLO     MOSUNNY   66  55  68 W7        29.97S
$$

NYZ026>034-041>043-021600-
NORTH


CITY           SKY/WX    TMP DP  RH WIND       PRES   REMARKS
WATERTOWN      SUNNY     65  48  54 W7        29.95R
FORT DRUM      NOT AVBL
MASSENA        SUNNY     66  48  52 W14       29.90S
SARANAC LAKE   PTSUNNY   59  43  55 VRB6G17   29.91R
PLATTSBURGH    SUNNY     67  46  47 W7        29.88R
$$

NYZ001>004-010>016-019>021-021600-
WEST


CITY           SKY/WX    TMP DP  RH WIND       PRES   REMARKS
NIAGARA FALLS  MOSUNNY   65  53  65 VRB6      29.99R
BUFFALO        PTSUNNY   64  54  69 N6        29.98S
DUNKIRK        CLOUDY    64  57  78 N9        29.98S
JAMESTOWN      CLOUDY    63  54  72 N6        29.99S
WELLSVILLE     CLOUDY    64  54  69 N5        30.00F
ROCHESTER      PTSUNNY   66  54  65 N8        29.98S
PENN YAN       PTSUNNY   66  56  70 CALM      29.97S
$$

             KEY
       WCI = WIND CHILL INDEX
       VSB = VISIBILITY
       HX  = HEAT INDEX
$$


USA.gov is the U.S. government's official web portal to all federal, state and local government web resources and services.